** Reindexing in progress, block data might not be up to date **

Address 0x29fb92410a7c1ba5d8ee26db4bfa95cb12ce38d9 2

 
Txn Hash Method
Block
From
To
Value [Txn Fee]
0x84df90c529b1d07236ee63963b1c01c11c48af0f14b77c1ae4c9e57b8ba74436Transfer61906262021-04-01 13:59:34292 days 8 hrs ago0x29fb92410a7c1ba5d8ee26db4bfa95cb12ce38d9OUT Binance: BUSD Stablecoin0 BNB0.00036103
0xaf6b2012a55fb4862d80c0244d48b1ae6daa1c9f210f6511b4ed452f86b0be15Transfer61905352021-04-01 13:55:01292 days 8 hrs ago0x29fb92410a7c1ba5d8ee26db4bfa95cb12ce38d9OUTVegan Finance: Deployer0.6 BNB0.00021
0x50f42da60754e17199723879191b6972560f5dde07443c2cb50754bb41e38809Swap Exact Token...59369612021-03-23 16:56:17301 days 5 hrs ago0x29fb92410a7c1ba5d8ee26db4bfa95cb12ce38d9OUT PancakeSwap: Router0 BNB0.00179709
0x42d79086582c448c003848f0ea57090a066a8231e6d6fb1e344305db9a7ba1edTransfer59350652021-03-23 15:21:29301 days 7 hrs ago0x29fb92410a7c1ba5d8ee26db4bfa95cb12ce38d9OUT0x93440e2f3a7be3545b5198d6168b520c84f951a40.1 BNB0.00021
0xd31d93ca981cf8f7f41345e0b1efd3a5d0d2ac5f683c83f4eeabef89f014b616Transfer58302502021-03-19 23:31:22304 days 23 hrs ago0x29fb92410a7c1ba5d8ee26db4bfa95cb12ce38d9OUT Vegan Finance: VEGAN Token0 BNB0.00036278
0x06ed8b3b73911cc3657eddbcd97bbaf14ac0b7465df9e0c178649796489e4af4Transfer58302152021-03-19 23:29:37304 days 23 hrs ago0x29fb92410a7c1ba5d8ee26db4bfa95cb12ce38d9OUT0x4db77b33d94f61bc8855fb67191c0b39c0ef3a020.002 BNB0.00021
0x36ac8adba8d33a94a962ba640c893636be80b56e79b69cd560b0249eac0904bcTransfer58302082021-03-19 23:29:16304 days 23 hrs ago0x29fb92410a7c1ba5d8ee26db4bfa95cb12ce38d9OUT Vegan Finance: VEGAN Token0 BNB0.0005129
0x522a9d3790e5c417ac6905c97f08393d84b866bb68e25898bada36df10ea3f11Transfer57741402021-03-18 0:41:51306 days 21 hrs ago0x29fb92410a7c1ba5d8ee26db4bfa95cb12ce38d9OUT Vegan Finance: VEGAN Token0 BNB0.00051278
0x0c0ca5f0f7582b43a08a715e3813e9de08afaa99e251c93010091b2171097855Transfer57741312021-03-18 0:41:24306 days 21 hrs ago0x29fb92410a7c1ba5d8ee26db4bfa95cb12ce38d9OUT Vegan Finance: VEGAN Token0 BNB0.00051278
0x9b78738f990e6bc37b7b84952218d83c9e7d9a3825b5018f3fe22791df73055fTransfer57741212021-03-18 0:40:54306 days 21 hrs ago0x29fb92410a7c1ba5d8ee26db4bfa95cb12ce38d9OUT Vegan Finance: VEGAN Token0 BNB0.00051278
0x322b9838400396da3b66b46e3e85f2383c58df7ff32e4773b778e117c59205d1Transfer57741122021-03-18 0:40:27306 days 21 hrs ago0x29fb92410a7c1ba5d8ee26db4bfa95cb12ce38d9OUT Vegan Finance: VEGAN Token0 BNB0.00051266
0x9b92c5ef18079b2ba5c515abb9951c5b83da248a707114bddb742e8d6054ca05Transfer57741032021-03-18 0:40:00306 days 21 hrs ago0x29fb92410a7c1ba5d8ee26db4bfa95cb12ce38d9OUT Vegan Finance: VEGAN Token0 BNB0.00051266
0x6f8dcf23d88c9f603204eed6114329ce36c5d0ac74279bd0762286a9e9625e6eTransfer57740942021-03-18 0:39:33306 days 21 hrs ago0x29fb92410a7c1ba5d8ee26db4bfa95cb12ce38d9OUT Vegan Finance: VEGAN Token0 BNB0.00051278
0x736501bc6d1febadda2ac461b871f6a963a8688fd843c1607e040c23713541ecTransfer57740852021-03-18 0:39:06306 days 21 hrs ago0x29fb92410a7c1ba5d8ee26db4bfa95cb12ce38d9OUT Vegan Finance: VEGAN Token0 BNB0.00051278
0x58bb29742a69034b60e70c78253ffce9159a82270a241caed863b0bf3ba0e9f7Transfer57740752021-03-18 0:38:36306 days 21 hrs ago0x29fb92410a7c1ba5d8ee26db4bfa95cb12ce38d9OUT Vegan Finance: VEGAN Token0 BNB0.00051278
0xf429c95088bbd1c784ef089d870ff5e8ca42a70dd17be80d56c62c880d9fb694Transfer57740662021-03-18 0:38:09306 days 21 hrs ago0x29fb92410a7c1ba5d8ee26db4bfa95cb12ce38d9OUT Vegan Finance: VEGAN Token0 BNB0.00051278
0xb3f5fc2f3c4140f9f3f715ffe8ff943531a4d3bb18547390e2af2022dd7461f3Transfer57740572021-03-18 0:37:42306 days 21 hrs ago0x29fb92410a7c1ba5d8ee26db4bfa95cb12ce38d9OUT Vegan Finance: VEGAN Token0 BNB0.00051278
0x536d59fe37a5e3b144aa33eb472eb90336c08012678b1ba9009a86b045a6716dTransfer57740482021-03-18 0:37:15306 days 21 hrs ago0x29fb92410a7c1ba5d8ee26db4bfa95cb12ce38d9OUT Vegan Finance: VEGAN Token0 BNB0.00051278
0xe89a291901ac5d8a44670252c6d7cad50bbd519bbf58d66dd7b748c65da52df4Transfer57740392021-03-18 0:36:48306 days 21 hrs ago0x29fb92410a7c1ba5d8ee26db4bfa95cb12ce38d9OUT Vegan Finance: VEGAN Token0 BNB0.00051278
0x007ee60b601ccc7de312923041125deb87fd39a0dcc6bbb72760dea6fb706588Transfer57740302021-03-18 0:36:21306 days 22 hrs ago0x29fb92410a7c1ba5d8ee26db4bfa95cb12ce38d9OUT Vegan Finance: VEGAN Token0 BNB0.00051278
0x3f6a9d81565d902bb8fecb5e3825a9ef4b423fbfbee13b8c9a89c2cc0846a62dTransfer57740212021-03-18 0:35:54306 days 22 hrs ago0x29fb92410a7c1ba5d8ee26db4bfa95cb12ce38d9OUT Vegan Finance: VEGAN Token0 BNB0.00051278
0x78af6443b2949f8816d17a8081dcf991b1cf9124affdfbd40e1f66d39dd650abTransfer57740112021-03-18 0:35:24306 days 22 hrs ago0x29fb92410a7c1ba5d8ee26db4bfa95cb12ce38d9OUT Vegan Finance: VEGAN Token0 BNB0.00051278
0x77c818bd71e571c1ff5c7f9ef3783d964a6c9dff064ce157ad8ea9c4867dd83cTransfer57740012021-03-18 0:34:54306 days 22 hrs ago0x29fb92410a7c1ba5d8ee26db4bfa95cb12ce38d9OUT Vegan Finance: VEGAN Token0 BNB0.00051278
0x66e2e47f6b8ff3f5619213c22c73c229936682e6c607248325203455d8ad208eTransfer57739922021-03-18 0:34:27306 days 22 hrs ago0x29fb92410a7c1ba5d8ee26db4bfa95cb12ce38d9OUT Vegan Finance: VEGAN Token0 BNB0.00051278
0x3c76371216c33eedef95e95dc00c86e79126545e58ebe4668ec107611af23a71Transfer57739832021-03-18 0:34:00306 days 22 hrs ago0x29fb92410a7c1ba5d8ee26db4bfa95cb12ce38d9OUT Vegan Finance: VEGAN Token0 BNB0.00051266
[ Download CSV Export 
Latest 3 internal transactions
Parent Txn Hash Block From To Value
0x50f42da60754e17199723879191b6972560f5dde07443c2cb50754bb41e3880959369612021-03-23 16:56:17301 days 5 hrs ago PancakeSwap: Router0x29fb92410a7c1ba5d8ee26db4bfa95cb12ce38d90.448920966483709595 BNB
0xd9a07a82a48960324a9bd356dec4dbac290bf249caa3a59b66115849249c44c757056202021-03-15 15:33:05309 days 7 hrs ago PancakeSwap: Router0x29fb92410a7c1ba5d8ee26db4bfa95cb12ce38d90.856168184463644119 BNB
0x06422c7ccf58ba9ffc9dd7396b12e3c2cce7caa1521307ecd2f8475fe0ebee6656551482021-03-13 21:26:32311 days 1 hr ago PancakeSwap: Router0x29fb92410a7c1ba5d8ee26db4bfa95cb12ce38d90.642908339843986847 BNB
[ Download CSV Export 
Loading

Contract Name:
0 BNB

Compiler Version
0

Optimization Enabled:
0 BNB

Other Settings:
-NA-
Block Transaction Gas Used Reward
Age Block Fee Address BC Fee Address Voting Power Jailed Incoming
Block Uncle Number Difficulty Gas Used Reward
Loading
Loading
Make sure to use the "Vote Down" button for any spammy posts, and the "Vote Up" for interesting conversations.